Location: Unspecified
(0.0000°N, 0.0000°E)
Time: 19:46:01
(UTC+00:00)

Amsat-Oscar-8 - Pass Details

Date: 06 June 2023
Orbit: 890 x 901 km, 99.2° (Epoch: 24 September)

Event Time Altitude Azimuth Distance (km) Brightness Sun altitude
Rises 02:53:50 0° 19° (NNE) 3,493 12.5 -41.8°
Reaches altitude 10° 02:56:15 10° 23° (NNE) 2,558 11.7 -41.3°
Enters shadow 02:58:05 21° 27° (NNE) 1,877 10.9 -40.9°
